sat.trackr.live / text

‹ back to catalog

ZHANGHENG 1-02 (CSES-2)

NORAD 64393 · 2025-128A

PAYLOAD ACTIVE UNKNOWN

§ Identity

Operator
Country
PRC
Launch date
2025-06-14
Launch site
JSC
Launch vehicle
Mass (kg)
RCS (m²)

External: N2YO · Heavens-Above · Gunter

§ Orbital elements

Epoch: 2026-05-24T18:19:04.196928Z

Period
94.68 min
Inclination
97.3568°
Eccentricity
0.0012691
Mean motion
15.20970536 rev/d
Perigee alt
494.2 km
Apogee alt
511.6 km
Semi-major
6,881.0 km
B*
1.0121e-6
RAAN
272.0944°
Arg perigee
188.9851°
Mean anomaly
171.1160°
Rev number
5,236

§ Raw data

ZHANGHENG 1-02 (CSES-2)1 64393U 25128A   26144.76324302 -.00000046  00000+0  10121-5 0  99972 64393  97.3568 272.0944 0012691 188.9851 171.1160 15.20970536 52363

JSON: /api/v1/satellites/64393 · /tle

For live sub-satellite position, see the globe view (requires WebGL).

§ Visibility from observer

Set your observer location to see the next 7 days of passes ≥ 10°. The values pass through the URL so the page stays shareable.

No JS? Fill the form by hand. The geolocation button needs JavaScript.

§ Radio — SatNOGS DB

ModeDescriptionDownlinkUplink
FM S-band telemetry 2.229 GHz

1 transmitter · refreshed weekly from db.satnogs.org